• Em Portugal
  • Lista de países
  • Para 7 dias
  • Temperatura da água
  • Mapas de satélite
  • Mapa do tempo
  • Widgets de tempo
  • user-avatar
    Iniciar Sessão

    Previsão horária em Graz

    Hoje, 23 Setembro, Domingo

    Tempo Temperatura Precipitação Vento Pressão Humidade
    00:00 +11°C° 0 mm 0 m/s 728 mmHg 89%
    01:00 +11°C° 0 mm 0 m/s 728 mmHg 88%
    02:00 +11°C° 0.1 mm 0 m/s 728 mmHg 88%
    03:00 +11°C° 0.1 mm 0 m/s 728 mmHg 88%
    04:00 +11°C° 0.1 mm 0 m/s 727 mmHg 88%
    05:00 +12°C° 0 mm 0 m/s 727 mmHg 88%
    06:00 +12°C° 0 mm 0 m/s 727 mmHg 88%
    07:00 +13°C° 0 mm 1 m/s 727 mmHg 88%
    08:00 +14°C° 0 mm 1 m/s 727 mmHg 82%
    09:00 +16°C° 0 mm 1 m/s 727 mmHg 76%
    10:00 +19°C° 0 mm 1 m/s 727 mmHg 70%
    11:00 +21°C° 0 mm 1 m/s 726 mmHg 66%
    12:00 +23°C° 0 mm 2 m/s 726 mmHg 62%
    13:00 +25°C° 0 mm 2 m/s 726 mmHg 57%
    14:00 +25°C° 0 mm 2 m/s 725 mmHg 60%
    15:00 +25°C° 0 mm 2 m/s 724 mmHg 62%
    16:00 +25°C° 0 mm 2 m/s 724 mmHg 64%
    17:00 +23°C° 0 mm 2 m/s 723 mmHg 73%
    18:00 +20°C° 0 mm 2 m/s 722 mmHg 81%
    19:00 +20°C° 0 mm 1 m/s 722 mmHg 90%
    20:00 +19°C° 0 mm 1 m/s 721 mmHg 91%
    21:00 +18°C° 0 mm 2 m/s 721 mmHg 92%
    22:00 +18°C° 0 mm 2 m/s 720 mmHg 94%
    23:00 +18°C° 0.1 mm 2 m/s 720 mmHg 94%

    Amanhã, 24 Setembro, Segunda-feira

    Tempo Temperatura Precipitação Vento Pressão Humidade
    00:00 +18°C° 0.1 mm 2 m/s 720 mmHg 94%
    01:00 +17°C° 0.1 mm 2 m/s 719 mmHg 95%
    02:00 +17°C° 0.4 mm 3 m/s 721 mmHg 91%
    03:00 +15°C° 0.4 mm 4 m/s 722 mmHg 86%
    04:00 +15°C° 0.4 mm 4 m/s 723 mmHg 82%
    05:00 +14°C° 0.1 mm 4 m/s 724 mmHg 80%
    06:00 +13°C° 0.1 mm 4 m/s 725 mmHg 78%
    07:00 +12°C° 0.1 mm 4 m/s 726 mmHg 75%
    08:00 +12°C° 0.1 mm 4 m/s 727 mmHg 69%
    09:00 +13°C° 0.1 mm 5 m/s 729 mmHg 64%
    10:00 +14°C° 0.1 mm 5 m/s 730 mmHg 58%
    11:00 +14°C° 0 mm 5 m/s 730 mmHg 55%
    12:00 +14°C° 0 mm 5 m/s 731 mmHg 52%
    13:00 +15°C° 0 mm 5 m/s 731 mmHg 49%
    14:00 +14°C° 0 mm 5 m/s 731 mmHg 49%
    15:00 +14°C° 0 mm 5 m/s 731 mmHg 49%
    16:00 +13°C° 0 mm 5 m/s 731 mmHg 49%
    17:00 +12°C° 0 mm 4 m/s 732 mmHg 55%
    18:00 +10°C° 0 mm 3 m/s 732 mmHg 62%
    19:00 +8°C° 0 mm 2 m/s 733 mmHg 69%
    20:00 +8°C° 0 mm 2 m/s 733 mmHg 72%
    21:00 +8°C° 0 mm 1 m/s 734 mmHg 75%
    22:00 +7°C° 0 mm 1 m/s 735 mmHg 78%
    23:00 +7°C° 0 mm 1 m/s 735 mmHg 79%

    Depois de amanhã, 25 Setembro, Terça-feira

    Tempo Temperatura Precipitação Vento Pressão Humidade
    00:00 +7°C° 0 mm 1 m/s 735 mmHg 80%
    01:00 +7°C° 0 mm 1 m/s 735 mmHg 81%
    02:00 +6°C° 0 mm 1 m/s 736 mmHg 82%
    03:00 +6°C° 0 mm 1 m/s 736 mmHg 83%
    04:00 +6°C° 0 mm 1 m/s 736 mmHg 84%
    05:00 +6°C° 0 mm 1 m/s 736 mmHg 82%
    06:00 +7°C° 0 mm 1 m/s 737 mmHg 80%
    07:00 +7°C° 0 mm 1 m/s 737 mmHg 78%
    08:00 +9°C° 0 mm 1 m/s 737 mmHg 68%
    09:00 +10°C° 0 mm 2 m/s 737 mmHg 57%
    10:00 +12°C° 0 mm 2 m/s 738 mmHg 47%
    11:00 +13°C° 0 mm 2 m/s 737 mmHg 43%
    12:00 +14°C° 0 mm 2 m/s 737 mmHg 40%
    13:00 +15°C° 0 mm 2 m/s 737 mmHg 36%
    14:00 +15°C° 0 mm 2 m/s 737 mmHg 37%
    15:00 +14°C° 0 mm 2 m/s 737 mmHg 39%
    16:00 +14°C° 0 mm 2 m/s 736 mmHg 40%
    17:00 +12°C° 0 mm 2 m/s 737 mmHg 49%
    18:00 +10°C° 0 mm 1 m/s 737 mmHg 57%
    19:00 +7°C° 0 mm 1 m/s 737 mmHg 65%
    20:00 +7°C° 0 mm 1 m/s 738 mmHg 68%
    21:00 +6°C° 0 mm 1 m/s 738 mmHg 70%
    22:00 +5°C° 0 mm 1 m/s 738 mmHg 73%
    23:00 +5°C° 0 mm 1 m/s 739 mmHg 74%

    26 Setembro, Quarta-feira

    Tempo Temperatura Precipitação Vento Pressão Humidade
    00:00 +5°C° 0 mm 1 m/s 739 mmHg 76%
    01:00 +5°C° 0 mm 1 m/s 739 mmHg 77%
    02:00 +4°C° 0 mm 1 m/s 738 mmHg 78%
    03:00 +4°C° 0 mm 1 m/s 738 mmHg 79%
    04:00 +4°C° 0 mm 1 m/s 738 mmHg 81%
    05:00 +5°C° 0 mm 1 m/s 738 mmHg 77%
    06:00 +5°C° 0 mm 1 m/s 738 mmHg 74%
    07:00 +6°C° 0 mm 1 m/s 738 mmHg 71%
    08:00 +9°C° 0 mm 1 m/s 738 mmHg 61%
    09:00 +11°C° 0 mm 1 m/s 738 mmHg 51%
    10:00 +14°C° 0 mm 1 m/s 738 mmHg 41%
    11:00 +15°C° 0 mm 2 m/s 737 mmHg 39%
    12:00 +16°C° 0 mm 2 m/s 737 mmHg 36%
    13:00 +18°C° 0 mm 2 m/s 737 mmHg 33%
    14:00 +17°C° 0 mm 2 m/s 736 mmHg 36%
    15:00 +17°C° 0 mm 2 m/s 736 mmHg 38%
    16:00 +17°C° 0 mm 2 m/s 735 mmHg 41%
    17:00 +14°C° 0 mm 1 m/s 735 mmHg 50%
    18:00 +12°C° 0 mm 1 m/s 735 mmHg 59%
    19:00 +9°C° 0 mm 1 m/s 735 mmHg 68%
    20:00 +9°C° 0 mm 1 m/s 735 mmHg 68%
    21:00 +9°C° 0 mm 1 m/s 735 mmHg 69%
    22:00 +8°C° 0 mm 1 m/s 735 mmHg 70%
    23:00 +8°C° 0 mm 1 m/s 735 mmHg 69%

    27 Setembro, Quinta-feira

    Tempo Temperatura Precipitação Vento Pressão Humidade
    00:00 +8°C° 0 mm 1 m/s 735 mmHg 68%
    01:00 +8°C° 0 mm 1 m/s 735 mmHg 68%
    02:00 +8°C° 0 mm 1 m/s 734 mmHg 67%
    03:00 +8°C° 0 mm 1 m/s 734 mmHg 66%
    04:00 +8°C° 0 mm 1 m/s 734 mmHg 65%
    05:00 +9°C° 0 mm 1 m/s 734 mmHg 63%
    06:00 +10°C° 0 mm 1 m/s 734 mmHg 61%
    07:00 +10°C° 0 mm 1 m/s 734 mmHg 59%
    08:00 +14°C° 0 mm 1 m/s 734 mmHg 52%
    09:00 +18°C° 0 mm 1 m/s 734 mmHg 45%
    10:00 +20°C° 0 mm 0 m/s 734 mmHg 38%
    11:00 +23°C° 0 mm 1 m/s 733 mmHg 36%
    12:00 +24°C° 0 mm 1 m/s 733 mmHg 34%
    13:00 +25°C° 0 mm 1 m/s 733 mmHg 33%
    14:00 +24°C° 0 mm 1 m/s 732 mmHg 37%
    15:00 +23°C° 0 mm 1 m/s 731 mmHg 40%
    16:00 +23°C° 0 mm 1 m/s 731 mmHg 44%
    17:00 +20°C° 0 mm 1 m/s 731 mmHg 52%
    18:00 +16°C° 0 mm 1 m/s 730 mmHg 60%
    19:00 +12°C° 0 mm 0 m/s 730 mmHg 68%
    20:00 +13°C° 0 mm 1 m/s 730 mmHg 70%
    21:00 +12°C° 0 mm 1 m/s 730 mmHg 71%
    22:00 +12°C° 0 mm 1 m/s 730 mmHg 73%
    23:00 +12°C° 0 mm 1 m/s 729 mmHg 74%

    28 Setembro, Sexta-feira

    Tempo Temperatura Precipitação Vento Pressão Humidade
    00:00 +11°C° 0 mm 1 m/s 729 mmHg 75%
    01:00 +11°C° 0 mm 1 m/s 729 mmHg 76%
    02:00 +11°C° 0 mm 1 m/s 728 mmHg 75%
    03:00 +11°C° 0 mm 1 m/s 728 mmHg 75%
    04:00 +11°C° 0 mm 1 m/s 728 mmHg 75%
    05:00 +11°C° 0 mm 1 m/s 728 mmHg 74%
    06:00 +12°C° 0 mm 1 m/s 728 mmHg 72%
    07:00 +12°C° 0 mm 1 m/s 728 mmHg 71%
    08:00 +15°C° 0 mm 1 m/s 728 mmHg 62%
    09:00 +19°C° 0 mm 1 m/s 728 mmHg 54%
    10:00 +22°C° 0 mm 1 m/s 729 mmHg 45%
    11:00 +23°C° 0 mm 1 m/s 728 mmHg 43%
    12:00 +24°C° 0 mm 1 m/s 728 mmHg 41%
    13:00 +25°C° 0 mm 1 m/s 727 mmHg 39%
    14:00 +24°C° 0 mm 1 m/s 727 mmHg 41%
    15:00 +23°C° 0 mm 1 m/s 726 mmHg 44%
    16:00 +23°C° 0 mm 1 m/s 726 mmHg 47%
    17:00 +20°C° 0 mm 1 m/s 726 mmHg 55%
    18:00 +18°C° 0 mm 1 m/s 726 mmHg 63%
    19:00 +13°C° 0 mm 0 m/s 726 mmHg 71%
    20:00 +13°C° 0 mm 0 m/s 726 mmHg 72%
    21:00 +12°C° 0 mm 0 m/s 726 mmHg 73%
    22:00 +13°C° 0 mm 1 m/s 726 mmHg 75%
    23:00 +12°C° 0 mm 1 m/s 725 mmHg 75%
    Mostrar mais